Sivas, Turkey

8:58 AM +03 on March 25, 2017 (GMT +0300)
Sivas

Weather History for LTAR - December, 2013

Change the Weather History Date:

Monday, December 9, 2013

  Actual Average Record
Temperature  
Mean Temperature 14 °F -  
Max Temperature 25 °F 36 °F - ()
Min Temperature 3 °F 23 °F - ()
Degree Days  
Heating Degree Days 51    
Moisture  
Dew Point 9 °F    
Average Humidity 79    
Maximum Humidity 92    
Minimum Humidity 43    
Precipitation  
Precipitation 0.00 in 0.06 in - ()
Sea Level Pressure  
Sea Level Pressure 30.10 in    
Wind  
Wind Speed 8 mph ()    
Max Wind Speed 16 mph    
Max Gust Speed -    
Visibility 6.8 miles    
Events Snow    
T = Trace of Precipitation, MM = Missing Value Source: Averaged Metar Reports

Daily Weather History Graph

Daily Weather History Graph

Search for Another Location

Airport or City:

Trip Planner

Search our weather history database for the weather conditions in past years. The results will help you decide how hot, cold, wet, or windy it might be!

Date:

Astronomy

Dec. 09, 2013 Rise Set
Actual Time 6:41 AM EET 4:07 PM EET
Civil Twilight 6:11 AM EET 4:37 PM EET
Nautical Twilight 5:37 AM EET 5:11 PM EET
Astronomical Twilight 5:05 AM EET 5:44 PM EET
Moon 11:24 AM EET (12/9) 11:39 PM EET (12/9)
Length of Visible Light 10h 26m
Length of Day
9h 25m
Waxing Crescent, 47% of the Moon is Illuminated
Dec 9
Waxing Crescent
Dec 9
First Quarter
Dec 17
Full
Dec 25
Last Quarter
Jan 1
New

Hourly Weather History & Observations

Time (EET) Temp. Windchill Dew Point Humidity Pressure Visibility Wind Dir Wind Speed Gust Speed Precip Events Conditions
2:50 AM 8.6 °F -7.0 °F 6.8 °F 92% 30.09 in 6.2 mi West 12.7 mph - N/A   Scattered Clouds
4:50 AM 10.4 °F -0.4 °F 6.8 °F 85% 30.09 in 6.2 mi WNW 6.9 mph - N/A Snow Light Snow
5:50 AM 10.4 °F -2.4 °F 6.8 °F 85% 30.12 in 6.2 mi WNW 9.2 mph - N/A   Mostly Cloudy
6:50 AM 8.6 °F -5.5 °F 6.8 °F 92% 30.12 in 6.2 mi WNW 10.4 mph - N/A   Mostly Cloudy
7:50 AM 10.4 °F -6.0 °F 8.6 °F 92% 30.12 in 6.2 mi WNW 15.0 mph - N/A   Mostly Cloudy
8:00 AM 18 °F - 11 °F 62%  in 9 mi WNW 3.5 mph - -   Partly Cloudy
8:50 AM 12.2 °F -4.3 °F 10.4 °F 92% 30.12 in 6.2 mi WNW 16.1 mph - N/A   Scattered Clouds
9:50 AM 14.0 °F 0.5 °F 10.4 °F 86% 30.15 in 6.2 mi West 11.5 mph - N/A   Mostly Cloudy
10:50 AM 14.0 °F -1.4 °F 10.4 °F 86% 30.15 in 6.2 mi WNW 15.0 mph - N/A   Mostly Cloudy
11:00 AM 23 °F - 13 °F 52%  in 9 mi NNW 5.8 mph - -   Partly Cloudy
11:50 AM 15.8 °F 3.4 °F 12.2 °F 86% 30.15 in 6.2 mi West 10.4 mph - N/A   Mostly Cloudy
1:50 PM 15.8 °F 4.2 °F 10.4 °F 79% 30.12 in 6.2 mi WNW 9.2 mph - N/A   Scattered Clouds
2:00 PM 25 °F - 12 °F 43%  in 9 mi SSE 4.6 mph - -   Partly Cloudy
2:50 PM 17.6 °F 5.0 °F 10.4 °F 73% 30.12 in 6.2 mi WNW 11.5 mph - N/A   Partly Cloudy
3:50 PM 15.8 °F - 8.6 °F 73% 30.12 in 6.2 mi Variable 1.2 mph - N/A   Partly Cloudy
4:50 PM 8.6 °F - 3.2 °F 79% 30.09 in 6.2 mi Variable 2.3 mph - N/A   Partly Cloudy
5:00 PM 21 °F - 10 °F 48%  in 9 mi NNW 2.3 mph - -  
5:50 PM 12.2 °F 1.7 °F 6.8 °F 79% 30.09 in 6.2 mi WNW 6.9 mph - N/A   Scattered Clouds
6:50 PM 3.2 °F -10.3 °F -0.4 °F 85% 30.09 in 6.2 mi South 8.1 mph - N/A   Scattered Clouds
7:50 PM 6.8 °F -4.8 °F 3.2 °F 85% 30.09 in 6.2 mi SW 6.9 mph - N/A   Scattered Clouds
8:00 PM 17 °F - 12 °F 71%  in 9 mi NE 1.2 mph - -  
8:50 PM 8.6 °F -4.7 °F 5.0 °F 85% 30.06 in 6.2 mi South 9.2 mph - N/A   Scattered Clouds
9:50 PM 12.2 °F 1.7 °F 10.4 °F 92% 30.06 in 6.2 mi SSW 6.9 mph - N/A   Scattered Clouds
10:50 PM 12.2 °F 1.7 °F 10.4 °F 92% 30.04 in 6.2 mi South 6.9 mph - N/A   Scattered Clouds